Location: Schommer Observatory
(40.5200°N, 74.4500°W)
Time: 05:44:33
(UTC-04:00)

Envisat - Visible Passes

Search period start: 28 May 2018 00:00
Search period end: 07 June 2018 00:00
Orbit: 764 x 766 km, 98.2° (Epoch: 27 May)

Date Brightness Start Highest point End Pass type
(mag) Time Alt. Az. Time Alt. Az. Time Alt. Az.
29 May 5.6 21:38:31 10° SW 21:41:21 15° W 21:44:12 10° NW visible
30 May 4.7 20:59:45 10° SSW 21:04:19 33° W 21:08:54 10° NNW visible
01 Jun 5.5 21:26:31 10° SW 21:30:04 19° W 21:33:39 10° NW visible
02 Jun 4.3 20:48:19 10° S 20:53:06 42° W 20:57:56 10° NNW visible
03 Jun 6.0 21:55:25 10° W 21:55:58 10° W 21:56:30 10° W visible
04 Jun 5.2 21:14:46 10° SSW 21:18:50 24° W 21:22:56 10° NW visible
06 Jun 5.7 21:42:13 10° WSW 21:44:40 13° W 21:47:07 10° WNW visible
